| time (UTC) | temp F | wind direction | speed MPH | gust MPH | rain 1hr in | rain 24hr in | rain mn in | humidity % | barometer mb |
| 20260507022412 | 56 | 155 | 0.0 | 0.0 | 0.00 | 0.19 | 0.19 | 80 | 1003.7 |
| 20260507021910 | 56 | 155 | 0.0 | 0.0 | 0.00 | 0.19 | 0.19 | 80 | 1003.8 |
| 20260507021410 | 56 | 155 | 0.0 | 0.0 | 0.00 | 0.19 | 0.19 | 80 | 1003.8 |
| 20260507020908 | 56 | 155 | 0.0 | 0.0 | 0.00 | 0.19 | 0.19 | 80 | 1003.6 |
| 20260507020406 | 56 | 155 | 0.0 | 0.0 | 0.00 | 0.19 | 0.19 | 80 | 1003.7 |
| 20260507020126 | 56 | 155 | 0.0 | 0.0 | 0.00 | 0.19 | 0.19 | 80 | 1003.6 |
| 20260507015404 | 56 | 155 | 0.0 | 0.0 | 0.00 | 0.19 | 0.19 | 80 | 1003.8 |
| 20260507014900 | 56 | 155 | 0.0 | 0.0 | 0.00 | 0.19 | 0.19 | 80 | 1003.8 |
| 20260507014402 | 56 | 155 | 0.0 | 0.0 | 0.00 | 0.19 | 0.19 | 80 | 1003.8 |
| 20260507013858 | 56 | 155 | 0.0 | 2.0 | 0.00 | 0.19 | 0.19 | 80 | 1003.8 |
| 20260507013618 | 56 | 155 | 0.0 | 2.0 | 0.00 | 0.19 | 0.19 | 80 | 1003.8 |
| 20260507012856 | 56 | 155 | 0.0 | 0.0 | 0.00 | 0.19 | 0.19 | 80 | 1003.9 |
| 20260507012357 | 56 | 155 | 0.0 | 1.0 | 0.00 | 0.19 | 0.19 | 80 | 1004.0 |
| 20260507012120 | 56 | 155 | 0.0 | 2.0 | 0.00 | 0.19 | 0.19 | 80 | 1004.0 |
| 20260507011358 | 56 | 155 | 1.0 | 2.0 | 0.00 | 0.19 | 0.19 | 80 | 1004.0 |
| 20260507011117 | 56 | 155 | 1.0 | 2.0 | 0.00 | 0.19 | 0.19 | 79 | 1003.9 |
| 20260507010356 | 56 | 155 | 0.0 | 2.0 | 0.00 | 0.19 | 0.19 | 79 | 1004.1 |
| 20260507005859 | 56 | 155 | 0.0 | 2.0 | 0.00 | 0.19 | 0.19 | 79 | 1004.1 |
| 20260507005354 | 56 | 155 | 1.0 | 2.0 | 0.00 | 0.19 | 0.19 | 79 | 1004.2 |
| 20260507004853 | 56 | 155 | 1.0 | 3.0 | 0.00 | 0.19 | 0.19 | 79 | 1004.1 |
| 20260507004354 | 56 | 155 | 1.0 | 3.0 | 0.00 | 0.19 | 0.19 | 79 | 1004.1 |
| 20260507003854 | 56 | 155 | 1.0 | 3.0 | 0.00 | 0.19 | 0.19 | 79 | 1004.1 |
| 20260507003356 | 56 | 155 | 1.0 | 2.0 | 0.00 | 0.19 | 0.19 | 79 | 1004.1 |
| 20260507003118 | 56 | 155 | 1.0 | 2.0 | 0.00 | 0.19 | 0.19 | 79 | 1004.0 |
| 20260507002354 | 56 | 155 | 1.0 | 2.0 | 0.00 | 0.19 | 0.19 | 79 | 1004.0 |
| 20260507001852 | 56 | 155 | 1.0 | 2.0 | 0.00 | 0.19 | 0.19 | 79 | 1004.0 |
| 20260507001354 | 56 | 155 | 1.0 | 4.0 | 0.00 | 0.19 | 0.19 | 79 | 1004.0 |
| 20260507000848 | 57 | 155 | 1.0 | 4.0 | 0.00 | 0.19 | 0.19 | 79 | 1004.0 |
| 20260507000350 | 57 | 146 | 1.0 | 3.0 | 0.00 | 0.19 | 0.19 | 79 | 1004.0 |
| 20260506235848 | 57 | 146 | 1.0 | 4.0 | 0.00 | 0.19 | 0.19 | 79 | 1003.9 |
| 20260506235349 | 57 | 172 | 1.0 | 4.0 | 0.00 | 0.19 | 0.19 | 79 | 1004.0 |
| 20260506234849 | 57 | 159 | 0.0 | 2.0 | 0.00 | 0.19 | 0.19 | 79 | 1003.9 |
| 20260506234611 | 57 | 159 | 0.0 | 0.0 | 0.00 | 0.19 | 0.19 | 79 | 1004.0 |
| 20260506233846 | 57 | 159 | 0.0 | 0.0 | 0.00 | 0.19 | 0.19 | 79 | 1003.8 |
| 20260506233343 | 57 | 159 | 0.0 | 0.0 | 0.00 | 0.19 | 0.19 | 79 | 1003.8 |
| 20260506232842 | 57 | 159 | 0.0 | 0.0 | 0.00 | 0.19 | 0.19 | 79 | 1003.8 |
| 20260506232338 | 57 | 159 | 0.0 | 0.0 | 0.00 | 0.19 | 0.19 | 79 | 1003.9 |
| 20260506232057 | 57 | 142 | 0.0 | 0.0 | 0.00 | 0.19 | 0.19 | 79 | 1003.9 |
| 20260506231553 | 57 | 103 | 0.0 | 0.0 | 0.00 | 0.19 | 0.19 | 79 | 1004.0 |
| 20260506230836 | 58 | 165 | 0.0 | 0.0 | 0.00 | 0.19 | 0.19 | 79 | 1004.0 |
| 20260506230336 | 58 | 165 | 0.0 | 0.0 | 0.00 | 0.19 | 0.19 | 79 | 1003.8 |
| 20260506230055 | 58 | 165 | 0.0 | 0.0 | 0.00 | 0.19 | 0.19 | 79 | 1003.9 |
| 20260506225333 | 58 | 165 | 0.0 | 0.0 | 0.00 | 0.19 | 0.19 | 79 | 1004.1 |
| 20260506224828 | 58 | 165 | 0.0 | 0.0 | 0.01 | 0.19 | 0.19 | 79 | 1004.1 |
| 20260506224321 | 58 | 165 | 0.0 | 0.0 | 0.01 | 0.19 | 0.19 | 79 | 1004.2 |
| 20260506223815 | 58 | 132 | 0.0 | 0.0 | 0.01 | 0.19 | 0.19 | 79 | 1004.2 |
| 20260506223309 | 58 | 158 | 0.0 | 0.0 | 0.01 | 0.19 | 0.19 | 78 | 1004.3 |
| 20260506222803 | 58 | 160 | 0.0 | 0.0 | 0.01 | 0.19 | 0.19 | 78 | 1004.2 |
| 20260506222257 | 58 | 144 | 0.0 | 0.0 | 0.01 | 0.19 | 0.19 | 78 | 1004.2 |
| 20260506222234 | 58 | 144 | 0.0 | 0.0 | 0.01 | 0.19 | 0.19 | 79 | 1004.2 |
| 20260506221245 | 58 | 157 | 0.0 | 0.0 | 0.01 | 0.19 | 0.19 | 79 | 1004.4 |
| 20260506221007 | 58 | 140 | 0.0 | 0.0 | 0.01 | 0.19 | 0.19 | 78 | 1004.4 |
| 20260506220233 | 58 | 88 | 0.0 | 0.0 | 0.02 | 0.19 | 0.19 | 78 | 1004.4 |
| 20260506215726 | 58 | 151 | 0.0 | 0.0 | 0.02 | 0.19 | 0.19 | 78 | 1004.5 |
| 20260506215221 | 58 | 129 | 0.0 | 0.0 | 0.01 | 0.18 | 0.18 | 79 | 1004.5 |
| 20260506214715 | 59 | 128 | 0.0 | 0.0 | 0.02 | 0.18 | 0.18 | 79 | 1004.5 |
| 20260506214209 | 59 | 128 | 0.0 | 0.0 | 0.02 | 0.18 | 0.18 | 78 | 1004.5 |
| 20260506213703 | 59 | 192 | 0.0 | 0.0 | 0.02 | 0.18 | 0.18 | 79 | 1004.6 |
| 20260506213157 | 59 | 164 | 0.0 | 0.0 | 0.03 | 0.18 | 0.18 | 79 | 1004.6 |
| 20260506212651 | 59 | 164 | 0.0 | 0.0 | 0.03 | 0.18 | 0.18 | 79 | 1004.7 |
| 20260506212145 | 59 | 164 | 0.0 | 0.0 | 0.04 | 0.18 | 0.18 | 78 | 1004.8 |
| 20260506211638 | 59 | 163 | 0.0 | 0.0 | 0.04 | 0.18 | 0.18 | 78 | 1004.8 |
| 20260506211133 | 59 | 163 | 0.0 | 0.0 | 0.04 | 0.18 | 0.18 | 78 | 1004.8 |
| 20260506210627 | 59 | 158 | 0.0 | 0.0 | 0.05 | 0.18 | 0.18 | 78 | 1004.8 |
| 20260506210120 | 59 | 122 | 0.0 | 0.0 | 0.04 | 0.17 | 0.17 | 78 | 1004.9 |
| 20260506205615 | 59 | 121 | 0.0 | 0.0 | 0.04 | 0.17 | 0.17 | 78 | 1004.8 |
| 20260506205333 | 59 | 121 | 0.0 | 0.0 | 0.04 | 0.17 | 0.17 | 78 | 1004.9 |
| 20260506204603 | 59 | 119 | 0.0 | 0.0 | 0.04 | 0.16 | 0.16 | 78 | 1004.8 |
| 20260506204057 | 59 | 117 | 0.0 | 0.0 | 0.04 | 0.16 | 0.16 | 78 | 1004.8 |
| 20260506203551 | 59 | 252 | 0.0 | 0.0 | 0.03 | 0.15 | 0.16 | 78 | 1004.9 |
| 20260506203045 | 59 | 102 | 0.0 | 0.0 | 0.04 | 0.15 | 0.15 | 77 | 1005.0 |
| 20260506202539 | 59 | 102 | 0.0 | 0.0 | 0.04 | 0.15 | 0.15 | 77 | 1005.1 |
| 20260506202033 | 59 | 153 | 0.0 | 0.0 | 0.04 | 0.14 | 0.14 | 77 | 1005.1 |
| 20260506201527 | 59 | 153 | 0.0 | 0.0 | 0.05 | 0.14 | 0.14 | 77 | 1005.2 |
| 20260506201021 | 59 | 153 | 0.0 | 0.0 | 0.05 | 0.14 | 0.14 | 77 | 1005.2 |
| 20260506200515 | 59 | 153 | 0.0 | 0.0 | 0.05 | 0.13 | 0.13 | 77 | 1005.2 |
| 20260506200009 | 59 | 153 | 0.0 | 0.0 | 0.05 | 0.13 | 0.13 | 76 | 1005.2 |
| 20260506195504 | 59 | 153 | 0.0 | 0.0 | 0.06 | 0.13 | 0.13 | 75 | 1005.3 |
| 20260506194957 | 59 | 153 | 0.0 | 0.0 | 0.06 | 0.12 | 0.13 | 74 | 1005.2 |
| 20260506194710 | 59 | 153 | 0.0 | 0.0 | 0.07 | 0.12 | 0.12 | 73 | 1005.5 |
| 20260506193945 | 59 | 153 | 0.0 | 0.0 | 0.08 | 0.12 | 0.12 | 73 | 1005.5 |
| 20260506193439 | 59 | 153 | 0.0 | 0.0 | 0.09 | 0.12 | 0.12 | 72 | 1005.5 |
| 20260506193155 | 59 | 153 | 0.0 | 0.0 | 0.08 | 0.11 | 0.11 | 71 | 1005.7 |
| 20260506192427 | 59 | 153 | 0.0 | 0.0 | 0.09 | 0.10 | 0.11 | 71 | 1005.6 |
| 20260506191921 | 59 | 153 | 0.0 | 0.0 | 0.09 | 0.10 | 0.10 | 70 | 1005.5 |
| 20260506191415 | 59 | 153 | 0.0 | 0.0 | 0.09 | 0.09 | 0.09 | 69 | 1005.5 |
| 20260506190909 | 59 | 153 | 0.0 | 0.0 | 0.09 | 0.09 | 0.09 | 68 | 1005.6 |
| 20260506190403 | 60 | 153 | 0.0 | 0.0 | 0.08 | 0.08 | 0.08 | 67 | 1005.7 |
| 20260506185857 | 60 | 153 | 0.0 | 0.0 | 0.08 | 0.08 | 0.08 | 67 | 1005.9 |
| 20260506185616 | 60 | 159 | 0.0 | 0.0 | 0.07 | 0.07 | 0.07 | 67 | 1006.1 |
| 20260506185331 | 60 | 161 | 0.0 | 0.0 | 0.06 | 0.06 | 0.06 | 66 | 1005.7 |
| 20260506184339 | 61 | 221 | 0.0 | 0.0 | 0.05 | 0.05 | 0.05 | 66 | 1006.3 |
| 20260506183833 | 61 | 221 | 0.0 | 0.0 | 0.04 | 0.04 | 0.04 | 66 | 1005.7 |
| 20260506183327 | 61 | 220 | 0.0 | 0.0 | 0.03 | 0.03 | 0.03 | 66 | 1005.8 |
| 20260506182821 | 62 | 223 | 0.0 | 0.0 | 0.02 | 0.02 | 0.03 | 66 | 1005.8 |
| 20260506182315 | 62 | 214 | 0.0 | 0.0 | 0.01 | 0.01 | 0.01 | 66 | 1005.7 |
| 20260506181809 | 63 | 213 | 0.0 | 0.0 | 0.00 | 0.00 | 0.00 | 65 | 1005.6 |
| 20260506181303 | 64 | 213 | 0.0 | 1.0 | 0.00 | 0.00 | 0.00 | 64 | 1005.4 |
| 20260506180757 | 64 | 163 | 1.0 | 4.0 | 0.00 | 0.00 | 0.00 | 63 | 1005.4 |
| 20260506180252 | 64 | 159 | 1.0 | 4.0 | 0.00 | 0.00 | 0.00 | 63 | 1005.3 |
| 20260506180011 | 65 | 78 | 1.0 | 4.0 | 0.00 | 0.00 | 0.00 | 63 | 1005.3 |
| 20260506175240 | 65 | 77 | 1.0 | 4.0 | 0.00 | 0.00 | 0.00 | 63 | 1005.4 |
| 20260506174733 | 65 | 165 | 1.0 | 4.0 | 0.00 | 0.00 | 0.00 | 61 | 1005.4 |
| 20260506174227 | 65 | 65 | 1.0 | 3.0 | 0.00 | 0.00 | 0.00 | 62 | 1005.4 |
| 20260506173937 | 65 | 65 | 2.0 | 4.0 | 0.00 | 0.00 | 0.00 | 60 | 1005.4 |
| 20260506173215 | 65 | 65 | 2.0 | 4.0 | 0.00 | 0.00 | 0.00 | 58 | 1005.5 |
| 20260506172930 | 65 | 153 | 2.0 | 6.0 | 0.00 | 0.00 | 0.00 | 57 | 1005.6 |
| 20260506172209 | 65 | 92 | 2.0 | 6.0 | 0.00 | 0.00 | 0.00 | 57 | 1005.6 |
| 20260506171709 | 65 | 90 | 2.0 | 4.0 | 0.00 | 0.00 | 0.00 | 58 | 1005.7 |
| 20260506171209 | 65 | 90 | 2.0 | 4.0 | 0.00 | 0.00 | 0.00 | 58 | 1005.8 |
| 20260506170935 | 65 | 88 | 2.0 | 4.0 | 0.00 | 0.00 | 0.00 | 58 | 1005.9 |
| 20260506170205 | 65 | 80 | 1.0 | 6.0 | 0.00 | 0.00 | 0.00 | 58 | 1006.1 |
| 20260506165705 | 65 | 153 | 1.0 | 6.0 | 0.00 | 0.00 | 0.00 | 58 | 1006.3 |
| 20260506165658 | 65 | 94 | 0.0 | 3.0 | 0.00 | 0.00 | 0.00 | 57 | 1006.4 |
| 20260506164701 | 65 | 86 | 1.0 | 3.0 | 0.00 | 0.00 | 0.00 | 57 | 1006.4 |
| 20260506164204 | 65 | 95 | 2.0 | 3.0 | 0.00 | 0.00 | 0.00 | 57 | 1006.5 |
| 20260506163702 | 65 | 81 | 2.0 | 3.0 | 0.00 | 0.00 | 0.00 | 57 | 1006.5 |
| 20260506163202 | 65 | 82 | 2.0 | 3.0 | 0.00 | 0.00 | 0.00 | 57 | 1006.7 |
| 20260506162702 | 65 | 77 | 1.0 | 4.0 | 0.00 | 0.00 | 0.00 | 57 | 1006.8 |
| 20260506162425 | 65 | 91 | 1.0 | 4.0 | 0.00 | 0.00 | 0.00 | 57 | 1007.0 |
| 20260506161701 | 65 | 168 | 1.0 | 3.0 | 0.00 | 0.00 | 0.00 | 58 | 1007.1 |
| 20260506161200 | 65 | 120 | 1.0 | 3.0 | 0.00 | 0.00 | 0.00 | 58 | 1007.3 |
| 20260506160701 | 65 | 115 | 1.0 | 3.0 | 0.00 | 0.00 | 0.00 | 58 | 1007.3 |
| 20260506160159 | 65 | 115 | 0.0 | 3.0 | 0.00 | 0.00 | 0.00 | 59 | 1007.4 |
| 20260506155659 | 64 | 115 | 0.0 | 2.0 | 0.00 | 0.00 | 0.00 | 59 | 1007.5 |
| 20260506155153 | 64 | 94 | 0.0 | 0.0 | 0.00 | 0.00 | 0.00 | 59 | 1007.5 |
| 20260506154652 | 64 | 134 | 0.0 | 0.0 | 0.00 | 0.00 | 0.00 | 59 | 1007.7 |
| 20260506154149 | 64 | 153 | 0.0 | 0.0 | 0.00 | 0.00 | 0.00 | 59 | 1007.7 |
| 20260506153650 | 64 | 153 | 0.0 | 0.0 | 0.00 | 0.00 | 0.00 | 58 | 1007.7 |
| 20260506153413 | 64 | 171 | 0.0 | 0.0 | 0.00 | 0.00 | 0.00 | 58 | 1007.7 |
| 20260506152651 | 65 | 96 | 0.0 | 0.0 | 0.00 | 0.00 | 0.00 | 57 | 1007.7 |
| 20260506152150 | 65 | 117 | 0.0 | 0.0 | 0.00 | 0.00 | 0.00 | 56 | 1007.7 |
| 20260506151649 | 66 | 88 | 0.0 | 0.0 | 0.00 | 0.00 | 0.00 | 55 | 1007.7 |
| 20260506151150 | 67 | 57 | 0.0 | 0.0 | 0.00 | 0.00 | 0.00 | 55 | 1007.8 |
| 20260506150651 | 67 | 213 | 0.0 | 0.0 | 0.00 | 0.00 | 0.00 | 56 | 1007.7 |
| 20260506150147 | 67 | 174 | 0.0 | 0.0 | 0.00 | 0.00 | 0.00 | 56 | 1007.6 |
| 20260506145646 | 67 | 194 | 0.0 | 0.0 | 0.00 | 0.00 | 0.00 | 56 | 1007.7 |
| 20260506145146 | 67 | 246 | 0.0 | 0.0 | 0.00 | 0.00 | 0.00 | 56 | 1007.5 |
| 20260506144908 | 67 | 229 | 0.0 | 0.0 | 0.00 | 0.00 | 0.00 | 56 | 1007.5 |
| 20260506144147 | 66 | 242 | 0.0 | 0.0 | 0.00 | 0.00 | 0.00 | 56 | 1007.5 |
| 20260506143645 | 66 | 169 | 0.0 | 0.0 | 0.00 | 0.00 | 0.00 | 57 | 1007.4 |
| 20260506143146 | 66 | 160 | 0.0 | 0.0 | 0.00 | 0.00 | 0.00 | 57 | 1007.3 |
| 20260506142646 | 66 | 160 | 0.0 | 0.0 | 0.00 | 0.00 | 0.00 | 57 | 1007.2 |
| 20260506142148 | 66 | 160 | 0.0 | 0.0 | 0.00 | 0.00 | 0.00 | 57 | 1007.3 |
| 20260506141643 | 66 | 160 | 0.0 | 0.0 | 0.00 | 0.00 | 0.00 | 57 | 1007.4 |
| 20260506141407 | 65 | 227 | 0.0 | 0.0 | 0.00 | 0.00 | 0.00 | 57 | 1007.5 |
| 20260506140641 | 65 | 227 | 0.0 | 0.0 | 0.00 | 0.00 | 0.00 | 58 | 1007.6 |
| 20260506140143 | 65 | 272 | 0.0 | 0.0 | 0.00 | 0.00 | 0.00 | 58 | 1007.7 |
| 20260506135643 | 65 | 214 | 0.0 | 0.0 | 0.00 | 0.00 | 0.00 | 58 | 1007.9 |
| 20260506135142 | 64 | 229 | 0.0 | 0.0 | 0.00 | 0.00 | 0.00 | 58 | 1007.9 |
| 20260506134642 | 64 | 234 | 0.0 | 0.0 | 0.00 | 0.00 | 0.00 | 59 | 1008.0 |
| 20260506134142 | 64 | 307 | 0.0 | 0.0 | 0.00 | 0.00 | 0.00 | 59 | 1008.1 |
| 20260506133643 | 63 | 232 | 0.0 | 0.0 | 0.00 | 0.00 | 0.00 | 60 | 1007.9 |
| 20260506133136 | 62 | 232 | 0.0 | 0.0 | 0.00 | 0.00 | 0.00 | 60 | 1008.0 |
| 20260506132630 | 62 | 80 | 0.0 | 0.0 | 0.00 | 0.00 | 0.00 | 62 | 1008.0 |
| 20260506132124 | 61 | 78 | 0.0 | 0.0 | 0.00 | 0.00 | 0.00 | 61 | 1008.1 |
| 20260506131618 | 61 | 78 | 0.0 | 0.0 | 0.00 | 0.00 | 0.00 | 61 | 1008.1 |
| 20260506131112 | 61 | 78 | 0.0 | 0.0 | 0.00 | 0.00 | 0.00 | 61 | 1007.9 |
| 20260506130606 | 60 | 78 | 0.0 | 0.0 | 0.00 | 0.00 | 0.00 | 61 | 1007.9 |
| 20260506130100 | 60 | 78 | 0.0 | 0.0 | 0.00 | 0.00 | 0.00 | 61 | 1007.9 |
| 20260506125554 | 60 | 78 | 0.0 | 0.0 | 0.00 | 0.00 | 0.00 | 61 | 1008.0 |
| 20260506125049 | 60 | 78 | 0.0 | 0.0 | 0.00 | 0.00 | 0.00 | 60 | 1008.0 |
| 20260506124542 | 60 | 78 | 0.0 | 0.0 | 0.00 | 0.00 | 0.00 | 60 | 1008.1 |
| 20260506124036 | 60 | 78 | 0.0 | 0.0 | 0.00 | 0.00 | 0.00 | 60 | 1008.1 |
| 20260506123530 | 59 | 108 | 0.0 | 0.0 | 0.00 | 0.00 | 0.00 | 61 | 1008.0 |
| 20260506123024 | 59 | 108 | 0.0 | 0.0 | 0.00 | 0.00 | 0.00 | 61 | 1008.2 |
| 20260506122518 | 59 | 108 | 0.0 | 0.0 | 0.00 | 0.00 | 0.00 | 61 | 1008.2 |
| 20260506122012 | 59 | 108 | 0.0 | 0.0 | 0.00 | 0.00 | 0.00 | 60 | 1008.2 |
| 20260506121506 | 59 | 108 | 0.0 | 0.0 | 0.00 | 0.00 | 0.00 | 61 | 1008.2 |
| 20260506121000 | 58 | 238 | 0.0 | 0.0 | 0.00 | 0.00 | 0.00 | 63 | 1008.2 |
| 20260506120454 | 58 | 238 | 0.0 | 0.0 | 0.00 | 0.00 | 0.00 | 62 | 1008.4 |
| 20260506115948 | 58 | 238 | 0.0 | 0.0 | 0.00 | 0.00 | 0.00 | 61 | 1008.3 |
| 20260506115442 | 58 | 238 | 0.0 | 0.0 | 0.00 | 0.00 | 0.00 | 62 | 1008.3 |
| 20260506114936 | 58 | 238 | 0.0 | 0.0 | 0.00 | 0.00 | 0.00 | 64 | 1008.2 |
| 20260506114430 | 57 | 238 | 0.0 | 0.0 | 0.00 | 0.00 | 0.00 | 65 | 1008.2 |
| 20260506113925 | 57 | 238 | 0.0 | 0.0 | 0.00 | 0.00 | 0.00 | 65 | 1008.4 |
| 20260506113418 | 56 | 355 | 0.0 | 0.0 | 0.00 | 0.00 | 0.00 | 66 | 1008.4 |
| 20260506112912 | 56 | 144 | 0.0 | 0.0 | 0.00 | 0.00 | 0.00 | 65 | 1008.5 |
| 20260506112635 | 56 | 144 | 0.0 | 0.0 | 0.00 | 0.00 | 0.00 | 65 | 1008.4 |
| 20260506111901 | 55 | 144 | 0.0 | 0.0 | 0.00 | 0.00 | 0.00 | 64 | 1009.0 |
| 20260506111354 | 55 | 144 | 0.0 | 0.0 | 0.00 | 0.00 | 0.00 | 64 | 1008.6 |
| 20260506110848 | 55 | 144 | 0.0 | 0.0 | 0.00 | 0.00 | 0.00 | 64 | 1008.7 |
| 20260506110342 | 54 | 144 | 0.0 | 0.0 | 0.00 | 0.00 | 0.00 | 64 | 1008.7 |
| 20260506105922 | 54 | 144 | 0.0 | 0.0 | 0.00 | 0.00 | 0.00 | 64 | 1008.9 |
| 20260506104824 | 54 | 144 | 0.0 | 0.0 | 0.00 | 0.00 | 0.00 | 65 | 1008.7 |
| 20260506104538 | 54 | 144 | 0.0 | 0.0 | 0.00 | 0.00 | 0.00 | 66 | 1008.5 |
| 20260506103812 | 54 | 144 | 0.0 | 0.0 | 0.00 | 0.00 | 0.00 | 66 | 1008.5 |
| 20260506103306 | 54 | 144 | 0.0 | 0.0 | 0.00 | 0.00 | 0.00 | 66 | 1008.4 |
| 20260506102800 | 53 | 144 | 0.0 | 0.0 | 0.00 | 0.00 | 0.00 | 66 | 1008.5 |
| 20260506102253 | 54 | 144 | 0.0 | 0.0 | 0.00 | 0.00 | 0.00 | 66 | 1008.5 |
| 20260506101748 | 53 | 144 | 0.0 | 0.0 | 0.00 | 0.00 | 0.00 | 66 | 1008.3 |
| 20260506101242 | 53 | 144 | 0.0 | 0.0 | 0.00 | 0.00 | 0.00 | 65 | 1008.2 |
| 20260506100736 | 53 | 144 | 0.0 | 0.0 | 0.00 | 0.00 | 0.00 | 65 | 1008.1 |
| 20260506100231 | 53 | 144 | 0.0 | 0.0 | 0.00 | 0.00 | 0.00 | 65 | 1008.3 |
| 20260506095724 | 53 | 144 | 0.0 | 0.0 | 0.00 | 0.00 | 0.00 | 66 | 1008.3 |
| 20260506095219 | 53 | 144 | 0.0 | 0.0 | 0.00 | 0.00 | 0.00 | 65 | 1008.1 |
| 20260506094713 | 53 | 144 | 0.0 | 0.0 | 0.00 | 0.00 | 0.00 | 65 | 1008.1 |
| 20260506094206 | 54 | 144 | 0.0 | 0.0 | 0.00 | 0.00 | 0.00 | 65 | 1008.2 |
| 20260506093701 | 54 | 144 | 0.0 | 0.0 | 0.00 | 0.00 | 0.00 | 65 | 1008.2 |
| 20260506093153 | 54 | 144 | 0.0 | 0.0 | 0.00 | 0.00 | 0.00 | 64 | 1008.2 |
| 20260506092916 | 54 | 144 | 0.0 | 0.0 | 0.00 | 0.00 | 0.00 | 64 | 1008.2 |
| 20260506092142 | 54 | 144 | 0.0 | 0.0 | 0.00 | 0.00 | 0.00 | 64 | 1008.2 |
| 20260506091637 | 55 | 144 | 0.0 | 0.0 | 0.00 | 0.00 | 0.00 | 64 | 1008.2 |
| 20260506091130 | 55 | 144 | 0.0 | 0.0 | 0.00 | 0.00 | 0.00 | 64 | 1008.4 |
| 20260506090625 | 55 | 144 | 0.0 | 0.0 | 0.00 | 0.00 | 0.00 | 64 | 1008.2 |
| 20260506090118 | 55 | 144 | 0.0 | 0.0 | 0.00 | 0.00 | 0.00 | 64 | 1008.1 |
| 20260506085612 | 56 | 144 | 0.0 | 0.0 | 0.00 | 0.00 | 0.00 | 64 | 1008.1 |
| 20260506085106 | 56 | 144 | 0.0 | 0.0 | 0.00 | 0.00 | 0.00 | 64 | 1008.1 |
| 20260506084600 | 56 | 144 | 0.0 | 0.0 | 0.00 | 0.00 | 0.00 | 64 | 1008.1 |
| 20260506084054 | 56 | 144 | 0.0 | 0.0 | 0.00 | 0.00 | 0.00 | 64 | 1008.0 |
| 20260506083548 | 56 | 144 | 0.0 | 0.0 | 0.00 | 0.00 | 0.00 | 64 | 1007.7 |
| 20260506083041 | 56 | 144 | 0.0 | 0.0 | 0.00 | 0.00 | 0.00 | 63 | 1007.9 |
| 20260506082536 | 56 | 144 | 0.0 | 0.0 | 0.00 | 0.00 | 0.00 | 64 | 1007.8 |
| 20260506082030 | 56 | 144 | 0.0 | 0.0 | 0.00 | 0.00 | 0.00 | 64 | 1007.7 |
| 20260506081524 | 56 | 144 | 0.0 | 0.0 | 0.00 | 0.00 | 0.00 | 64 | 1007.7 |
| 20260506081018 | 57 | 144 | 0.0 | 0.0 | 0.00 | 0.00 | 0.00 | 63 | 1007.6 |
| 20260506080512 | 57 | 144 | 0.0 | 0.0 | 0.00 | 0.00 | 0.00 | 63 | 1007.6 |
| 20260506072930 | 57 | 144 | 0.0 | 0.0 | 0.00 | 0.00 | 0.00 | 63 | 1007.8 |
| 20260506072425 | 57 | 144 | 0.0 | 0.0 | 0.00 | 0.00 | 0.00 | 63 | 1007.7 |
| 20260506071925 | 57 | 144 | 0.0 | 0.0 | 0.00 | 0.00 | 0.00 | 63 | 1007.7 |
| 20260506071425 | 57 | 144 | 0.0 | 0.0 | 0.00 | 0.00 | 0.00 | 63 | 1007.6 |
| 20260506070926 | 57 | 144 | 0.0 | 0.0 | 0.00 | 0.00 | 0.00 | 63 | 1007.5 |
| 20260506070425 | 57 | 144 | 0.0 | 0.0 | 0.00 | 0.00 | 0.00 | 63 | 1007.5 |
| 20260506070151 | 57 | 144 | 0.0 | 0.0 | 0.00 | 0.00 | 0.00 | 62 | 1007.6 |
| 20260506062417 | 57 | 144 | 0.0 | 0.0 | 0.00 | 0.00 | 0.00 | 62 | 1007.2 |
| 20260506061915 | 58 | 144 | 0.0 | 0.0 | 0.00 | 0.00 | 0.00 | 62 | 1007.2 |
| 20260506061633 | 58 | 144 | 0.0 | 0.0 | 0.00 | 0.00 | 0.00 | 62 | 1007.4 |
| 20260506060912 | 58 | 144 | 0.0 | 0.0 | 0.00 | 0.00 | 0.00 | 61 | 1007.4 |
| 20260506060410 | 57 | 144 | 0.0 | 0.0 | 0.00 | 0.00 | 0.00 | 61 | 1007.3 |
| 20260506051402 | 57 | 144 | 0.0 | 0.0 | 0.00 | 0.00 | 0.00 | 65 | 1007.4 |
| 20260506050901 | 57 | 142 | 0.0 | 0.0 | 0.00 | 0.00 | 0.00 | 65 | 1007.4 |
| 20260506050402 | 57 | 142 | 0.0 | 0.0 | 0.00 | 0.00 | 0.00 | 64 | 1007.4 |
| 20260506050122 | 57 | 142 | 0.0 | 0.0 | 0.00 | 0.00 | 0.00 | 64 | 1007.5 |
| 20260506044900 | 57 | 142 | 0.0 | 0.0 | 0.00 | 0.00 | 0.00 | 64 | 1007.6 |
| 20260506044630 | 58 | 142 | 0.0 | 0.0 | 0.00 | 0.00 | 0.00 | 64 | 1007.6 |
| 20260506043901 | 58 | 142 | 0.0 | 0.0 | 0.00 | 0.00 | 0.00 | 64 | 1007.5 |
| 20260506043402 | 58 | 142 | 0.0 | 0.0 | 0.00 | 0.00 | 0.00 | 64 | 1007.5 |
| 20260506042900 | 58 | 142 | 0.0 | 0.0 | 0.00 | 0.00 | 0.00 | 64 | 1007.4 |
| 20260506042401 | 58 | 142 | 0.0 | 0.0 | 0.00 | 0.00 | 0.00 | 64 | 1007.4 |
| 20260506041900 | 58 | 142 | 0.0 | 0.0 | 0.00 | 0.00 | 0.00 | 64 | 1007.2 |
| 20260506041402 | 58 | 142 | 0.0 | 0.0 | 0.00 | 0.00 | 0.00 | 64 | 1007.4 |
| 20260506040901 | 58 | 142 | 0.0 | 0.0 | 0.00 | 0.00 | 0.00 | 64 | 1007.3 |
| 20260506040402 | 58 | 142 | 0.0 | 0.0 | 0.00 | 0.00 | 0.00 | 65 | 1007.4 |
| 20260506035900 | 57 | 142 | 0.0 | 0.0 | 0.00 | 0.00 | 0.00 | 65 | 1007.3 |
| 20260506035354 | 57 | 142 | 0.0 | 0.0 | 0.00 | 0.00 | 0.00 | 66 | 1007.5 |
| 20260506034848 | 57 | 142 | 0.0 | 0.0 | 0.00 | 0.00 | 0.00 | 67 | 1007.5 |
| 20260506034342 | 57 | 113 | 0.0 | 0.0 | 0.00 | 0.00 | 0.00 | 67 | 1007.4 |
| 20260506033835 | 57 | 113 | 0.0 | 0.0 | 0.00 | 0.00 | 0.00 | 67 | 1007.3 |
| 20260506033329 | 58 | 113 | 0.0 | 0.0 | 0.00 | 0.00 | 0.00 | 66 | 1007.1 |
| 20260506032830 | 58 | 113 | 0.0 | 0.0 | 0.00 | 0.00 | 0.00 | 66 | 1007.0 |
| 20260506032330 | 58 | 113 | 0.0 | 0.0 | 0.00 | 0.00 | 0.00 | 66 | 1007.1 |
| 20260506031830 | 58 | 113 | 0.0 | 0.0 | 0.00 | 0.00 | 0.00 | 66 | 1007.1 |
| 20260506031328 | 58 | 113 | 0.0 | 0.0 | 0.00 | 0.00 | 0.00 | 66 | 1007.0 |
| 20260506030828 | 58 | 113 | 0.0 | 0.0 | 0.00 | 0.00 | 0.00 | 66 | 1007.1 |
| 20260506030327 | 59 | 113 | 0.0 | 0.0 | 0.00 | 0.00 | 0.00 | 66 | 1007.1 |
| 20260506025828 | 59 | 113 | 0.0 | 0.0 | 0.00 | 0.00 | 0.00 | 66 | 1007.1 |
| 20260506025327 | 59 | 113 | 0.0 | 0.0 | 0.00 | 0.00 | 0.00 | 66 | 1007.1 |
| 20260506024828 | 59 | 113 | 0.0 | 0.0 | 0.00 | 0.00 | 0.00 | 66 | 1007.3 |
| 20260506024327 | 59 | 113 | 0.0 | 0.0 | 0.00 | 0.00 | 0.00 | 66 | 1007.3 |
| 20260506023827 | 59 | 113 | 0.0 | 0.0 | 0.00 | 0.00 | 0.00 | 65 | 1007.3 |
| 20260506023551 | 60 | 113 | 0.0 | 0.0 | 0.00 | 0.00 | 0.00 | 65 | 1007.4 |